STARLINK-34724, 66442

Orbit data source: Space-Track

STARLINK-34724, 66442 is a payload satellite owned by SpaceX/Seattle (US) in LEO that was launched on Tue, 11 Nov 2025 UTC via an FALCON 9 launch vehicle from the Air Force Eastern Test Range (AFETR). Payload-class satellites include a variety of spacecraft equipped with specific instruments for various scientific and technological missions. These include communications satellites like Starlink; space stations such as the ISS; scientific satellites like the Hubble; Earth observation satellites from companies like Planet Labs, Umbra, and HawkEye 360; GPS; miniature CubeSats for education and research; and military/defense satellites.

Loading next visibility...
Identifier
66442, 2025-259W
Orbit
LEO
Country
Flag of USUS
Related business
Manufacturer
SpaceX/Seattle
Mission
Operational Commercial Communications
Bus & Motor
STARLINK V2MO, Unknown motor
Mass
575 kg wet, ~530 kg dry
Launch date (UTC)
2025-11-11 (7 months ago)
Launch vehicle
FALCON 9
Launch site
Air Force Eastern Test Range (AFETR)
Object type
Payload
Rocket body
Debris
Shape & HBR
Box + 2 Pan, 17.7 m
Radar Cross Section
36.964 m², Large (>1 m²)

Expand to show TLE details & history
Last TLE update: 13 hours ago

TLE from 13 hours ago
0 STARLINK-34724
1 66442U 25259W   26150.14440907  .00029499  00000-0  10764-2 0  9991
2 66442  42.9997 174.7678 0001231 206.5042 153.5747 15.27604369 31942
Epoch: 2026-05-30T03:27Z
TLE epoch observation values (Epoch: 2026-05-30T03:27:56.943Z)
Latitude
-0.00001°
Longitude
-124.88413°
Altitude
483.508 km
Speed
7.625 km/s
True Right ascension
11h 39m 04s
True Declination
0° 00' 00"
Sunlit
Object was in daylight at epoch
Visualization orbit readout
Latitude
Unknown
Longitude
Unknown
Altitude
Unknown
Speed
Unknown
Apparent Right ascension
Unknown
Apparent Declination
Unknown
Sunlit
N/A
Visualization observer readout
Local Sidereal Time
02:01:16
Azimuth
Unknown
Elevation
Unknown
Doppler factor
Unknown
Orbital elements
Apogee altitude
485.766 km
Perigee altitude
484.077 km
Semi-major axis
6,863.058 km
Eccentricity
0.00012
Inclination
42.9997°
RAAN
174.7678°
Arg. of periapsis
206.5042°
True anomaly
153.58098°
Mean anomaly
153.5747°
Eccentric anomaly
153.57784°
Mean motion
3.81739 °/min
Orbital period
94.31 mins
BSTAR
0.0010764
Loading maneuver chart data...
Computing Atmospheric mass density...
Loading historical data...
Loading historical data...
Loading historical data...
Loading historical data...
Loading historical data...
Loading historical data...
Loading historical data...

Documentation

Showing up to 5 results
|